Weather History for Buffalo, MN

Change the Weather History Date:

Thursday, March 13, 2014

  Actual Average (KSTC) Record (KSTC)
Temperature  
Mean Temperature 34 °F 28 °F  
Max Temperature 46 °F 37 °F 64 °F (1911)
Min Temperature 21 °F 19 °F -15 °F (1975)
Degree Days  
Heating Degree Days 32 37  
Month to date heating degree days 517  
Since 1 July heating degree days 6963  
Cooling Degree Days 0 0  
Month to date cooling degree days 0  
Year to date cooling degree days 0  
Moisture  
Dew Point 28 °F    
Average Humidity 75    
Maximum Humidity 90    
Minimum Humidity 59    
Precipitation  
Precipitation 0.00 in 0.05 in 0.65 in (1978)
Month to date precipitation 0.53  
Year to date precipitation 1.77  
Snow  
Snow 0.00 in 0.30 in 10.00 in (1917)
Month to date snowfall 4.3  
Since 1 July snowfall 38.5  
Snow Depth -    
Sea Level Pressure  
Sea Level Pressure 29.75 in    
Wind  
Wind Speed 5 mph (South)    
Max Wind Speed 10 mph    
Max Gust Speed -    
Visibility 10 miles    
Events      
T = Trace of Precipitation, MM = Missing Value Source: NWS Daily Summary

Daily Weather History Graph

Daily Weather History Graph

Search for Another Location

Airport:

Trip Planner

Search our weather history database for the weather conditions in past years. The results will help you decide how hot, cold, wet, or windy it might be!

Date:

Astronomy

Mar. 13, 2014 Rise Set
Actual Time 7:31 AM CDT 7:18 PM CDT
Civil Twilight 7:02 AM CDT 7:48 PM CDT
Nautical Twilight 6:28 AM CDT 8:22 PM CDT
Astronomical Twilight 5:53 AM CDT 8:57 PM CDT
Moon 4:40 PM CDT (3/13) 5:45 AM CDT (3/13)
Length of Visible Light 12h 45m
Length of Day
11h 47m
Waxing Gibbous, 91% of the Moon is Illuminated
Mar 13
Waxing Gibbous
Mar 16
Full
Mar 23
Last Quarter
Mar 30
New
Apr 7
First Quarter

Hourly Weather History & Observations

Time (CDT) Temp. Windchill Dew Point Humidity Pressure Visibility Wind Dir Wind Speed Gust Speed Precip Events Conditions
12:15 AM 21.9 °F 15.7 °F 14.7 °F 74% 30.00 in 10.0 mi SSE 4.6 mph - N/A   Overcast
12:36 AM 21.9 °F 15.7 °F 14.7 °F 74% 30.00 in 10.0 mi South 4.6 mph - N/A   Overcast
12:56 AM 22.5 °F 15.1 °F 14.9 °F 73% 29.98 in 10.0 mi SSE 5.8 mph - N/A   Overcast
1:15 AM 22.8 °F 14.5 °F 15.3 °F 73% 29.98 in 10.0 mi South 6.9 mph - N/A   Overcast
1:36 AM 23.0 °F 15.8 °F 15.6 °F 73% 29.97 in 10.0 mi South 5.8 mph - N/A   Overcast
1:56 AM 23.7 °F 15.6 °F 16.3 °F 73% 29.96 in 10.0 mi South 6.9 mph - N/A   Overcast
2:15 AM 23.9 °F 16.8 °F 16.5 °F 73% 29.96 in 10.0 mi South 5.8 mph - N/A   Overcast
2:36 AM 24.4 °F 17.5 °F 17.1 °F 73% 29.96 in 10.0 mi South 5.8 mph - N/A   Overcast
2:56 AM 24.6 °F 17.7 °F 17.6 °F 75% 29.94 in 10.0 mi South 5.8 mph - N/A   Overcast
3:15 AM 25.2 °F 17.3 °F 18.5 °F 76% 29.93 in 10.0 mi South 6.9 mph - N/A   Overcast
3:36 AM 25.5 °F 18.7 °F 19.2 °F 77% 29.91 in 10.0 mi South 5.8 mph - N/A   Overcast
3:56 AM 25.7 °F 18.0 °F 19.8 °F 78% 29.89 in 10.0 mi SSE 6.9 mph - N/A   Overcast
4:15 AM 26.1 °F 19.4 °F 20.3 °F 79% 29.89 in 10.0 mi South 5.8 mph - N/A   Overcast
4:36 AM 26.1 °F 19.4 °F 20.7 °F 80% 29.88 in 10.0 mi South 5.8 mph - N/A   Mostly Cloudy
4:56 AM 25.7 °F 21.5 °F 20.8 °F 82% 29.87 in 10.0 mi South 3.5 mph - N/A   Clear
5:15 AM 25.3 °F 21.1 °F 20.8 °F 83% 29.87 in 10.0 mi SSE 3.5 mph - N/A   Clear
5:36 AM 25.2 °F 20.9 °F 21.0 °F 84% 29.86 in 10.0 mi SSE 3.5 mph - N/A   Clear
5:55 AM 24.8 °F 20.5 °F 21.2 °F 86% 29.86 in 10.0 mi South 3.5 mph - N/A   Clear
6:15 AM 25.2 °F 20.9 °F 21.6 °F 86% 29.85 in 10.0 mi South 3.5 mph - N/A   Clear
6:36 AM 25.2 °F 20.9 °F 21.9 °F 87% 29.84 in 10.0 mi South 3.5 mph - N/A   Clear
6:55 AM 25.5 °F 19.9 °F 22.6 °F 89% 29.84 in 10.0 mi South 4.6 mph - N/A   Clear
7:15 AM 26.1 °F 18.4 °F 23.0 °F 88% 29.83 in 10.0 mi South 6.9 mph - N/A   Clear
7:36 AM 26.2 °F 19.6 °F 23.4 °F 89% 29.83 in 10.0 mi South 5.8 mph - N/A   Clear
7:55 AM 26.2 °F 19.6 °F 23.7 °F 90% 29.83 in 10.0 mi South 5.8 mph - N/A   Clear
8:15 AM 26.4 °F 19.8 °F 23.9 °F 90% 29.82 in 10.0 mi South 5.8 mph - N/A   Clear
8:36 AM 27.1 °F 23.2 °F 24.4 °F 90% 29.81 in 10.0 mi South 3.5 mph - N/A   Clear
8:55 AM 28.0 °F 22.8 °F 24.8 °F 88% 29.81 in 10.0 mi South 4.6 mph - N/A   Clear
9:15 AM 29.5 °F 24.5 °F 25.7 °F 86% 29.81 in 10.0 mi South 4.6 mph - N/A   Clear
9:36 AM 30.9 °F 27.5 °F 26.2 °F 83% 29.80 in 10.0 mi South 3.5 mph - N/A   Clear
9:55 AM 32.2 °F 27.7 °F 27.1 °F 82% 29.80 in 10.0 mi SSW 4.6 mph - N/A   Clear
10:15 AM 33.8 °F 30.8 °F 28.4 °F 81% 29.79 in 10.0 mi SSW 3.5 mph - N/A   Clear
10:36 AM 35.2 °F 29.5 °F 28.8 °F 77% 29.78 in 10.0 mi SSW 6.9 mph - N/A   Clear
10:55 AM 36.7 °F 32.0 °F 29.3 °F 75% 29.78 in 10.0 mi SSW 5.8 mph - N/A   Clear
11:16 AM 37.6 °F 33.1 °F 29.3 °F 72% 29.78 in 10.0 mi SSW 5.8 mph - N/A   Clear
11:36 AM 39.2 °F 35.9 °F 30.0 °F 70% 29.77 in 10.0 mi South 4.6 mph - N/A   Clear
11:55 AM 39.9 °F 35.1 °F 30.2 °F 68% 29.76 in 10.0 mi SSW 6.9 mph - N/A   Clear
12:16 PM 40.5 °F 34.1 °F 30.2 °F 67% 29.75 in 10.0 mi SSW 10.4 mph - N/A   Clear
12:36 PM 41.2 °F 36.6 °F 30.9 °F 67% 29.74 in 10.0 mi SSW 6.9 mph - N/A   Clear
12:55 PM 41.7 °F 38.0 °F 30.9 °F 66% 29.74 in 10.0 mi SSW 5.8 mph - N/A   Clear
1:16 PM 42.6 °F 37.8 °F 31.3 °F 64% 29.73 in 10.0 mi South 8.1 mph - N/A   Clear
1:35 PM 42.8 °F 38.6 °F 31.6 °F 65% 29.73 in 10.0 mi South 6.9 mph - N/A   Clear
1:56 PM 43.2 °F 39.0 °F 32.0 °F 65% 29.72 in 10.0 mi South 6.9 mph - N/A   Clear
2:16 PM 43.7 °F 39.7 °F 32.0 °F 63% 29.71 in 10.0 mi South 6.9 mph - N/A   Clear
2:35 PM 44.2 °F 41.0 °F 32.0 °F 62% 29.70 in 10.0 mi South 5.8 mph - N/A   Clear
2:56 PM 44.6 °F 40.7 °F 32.2 °F 62% 29.69 in 10.0 mi South 6.9 mph - N/A   Clear
3:16 PM 45.5 °F 41.8 °F 32.4 °F 60% 29.68 in 10.0 mi South 6.9 mph - N/A   Clear
3:35 PM 45.5 °F 41.8 °F 32.5 °F 61% 29.67 in 10.0 mi South 6.9 mph - N/A   Clear
3:55 PM 46.4 °F 43.5 °F 32.9 °F 59% 29.66 in 10.0 mi South 5.8 mph - N/A   Clear
4:16 PM 46.4 °F 41.5 °F 33.8 °F 62% 29.65 in 10.0 mi South 10.4 mph - N/A   Clear
4:35 PM 46.0 °F 41.9 °F 34.2 °F 63% 29.65 in 10.0 mi South 8.1 mph - N/A   Clear
4:56 PM 46.4 °F 41.9 °F 34.2 °F 62% 29.64 in 10.0 mi South 9.2 mph - N/A   Clear
5:16 PM 45.7 °F 41.5 °F 34.7 °F 65% 29.63 in 10.0 mi South 8.1 mph - N/A   Clear
5:35 PM 46.0 °F 41.9 °F 35.4 °F 66% 29.62 in 10.0 mi South 8.1 mph - N/A   Clear
5:56 PM 46.4 °F 43.5 °F 35.6 °F 66% 29.61 in 10.0 mi South 5.8 mph - N/A   Clear
6:16 PM 46.4 °F 42.9 °F 35.6 °F 66% 29.61 in 10.0 mi South 6.9 mph - N/A   Clear
6:35 PM 45.7 °F 41.5 °F 35.8 °F 68% 29.60 in 10.0 mi South 8.1 mph - N/A   Clear
6:56 PM 44.8 °F 41.0 °F 35.8 °F 71% 29.59 in 10.0 mi South 6.9 mph - N/A   Clear
7:16 PM 44.2 °F 41.0 °F 35.6 °F 72% 29.59 in 10.0 mi South 5.8 mph - N/A   Clear
7:35 PM 43.5 °F 39.4 °F 35.6 °F 74% 29.59 in 10.0 mi South 6.9 mph - N/A   Clear
7:55 PM 43.0 °F 40.3 °F 35.6 °F 75% 29.59 in 10.0 mi South 4.6 mph - N/A   Clear
8:16 PM 42.8 °F 38.6 °F 35.6 °F 76% 29.58 in 10.0 mi South 6.9 mph - N/A   Clear
8:35 PM 42.1 °F 39.2 °F 35.6 °F 78% 29.57 in 10.0 mi South 4.6 mph - N/A   Clear
8:55 PM 41.2 °F 38.2 °F 35.4 °F 80% 29.56 in 10.0 mi SSW 4.6 mph - N/A   Clear
9:16 PM 41.0 °F - 35.2 °F 80% 29.56 in 10.0 mi Calm Calm - N/A   Clear
9:35 PM 41.4 °F 39.4 °F 35.6 °F 80% 29.55 in 10.0 mi South 3.5 mph - N/A   Clear
9:55 PM 41.0 °F 38.0 °F 35.2 °F 80% 29.55 in 10.0 mi SSW 4.6 mph - N/A   Clear
10:16 PM 39.6 °F - 34.7 °F 83% 29.55 in 10.0 mi Calm Calm - N/A   Clear
10:35 PM 39.4 °F - 34.9 °F 84% 29.54 in 10.0 mi Calm Calm - N/A   Clear
10:55 PM 39.6 °F - 35.1 °F 84% 29.53 in 10.0 mi Calm Calm - N/A   Clear
11:15 PM 38.7 °F 36.3 °F 34.5 °F 85% 29.52 in 10.0 mi SSW 3.5 mph - N/A   Clear
11:35 PM 37.6 °F - 33.8 °F 86% 29.52 in 10.0 mi Calm Calm - N/A   Clear
11:56 PM 37.6 °F - 34.0 °F 87% 29.52 in 10.0 mi Calm Calm - N/A   Clear